Regional Weather Roundup
Issued by NWS

Home | Current Version | Previous Version | Text Only | Print | Product List | Glossary Off
Versions: 1 2 3 4 5 6 7 8 9 10 11 12 13 14 15 16 17 18 19 20 21 22 23 24 25 26 27

000
ASUS45 KCYS 250110
RWRWY

WYOMING REGIONAL WEATHER ROUNDUP
NATIONAL WEATHER SERVICE CHEYENNE WY
600 PM MST FRI FEB 24 2017

NOTE:  "FAIR" INDICATES FEW OR NO CLOUDS BELOW 12,000 FEET
WITH NO SIGNIFICANT WEATHER AND/OR OBSTRUCTIONS TO VISIBILITY.

WYZ001-250200-
YELLOWSTONE NATIONAL PARK

CITY           SKY/WX    TMP DP  RH WIND       PRES   REMARKS
LK YELLOWSTONE   N/A     11   4  73 VRB5      29.90R WCI   3
W YELLOWSTONE  NOT AVBL

$$
WYZ002>013-054>058-071-098>099-250200-
NORTHERN WYOMING

CITY           SKY/WX    TMP DP  RH WIND       PRES   REMARKS
JACKSON        MOCLDY    16   9  73 SW8       29.97R WCI   5
CODY           CLOUDY    24  18  77 N6        29.96R WCI  17
GREYBULL       CLOUDY    30  18  60 CALM      29.98S
WORLAND        MOCLDY    25  18  74 NE3       29.97R
SHERIDAN       CLOUDY    25  19  78 S7        29.98R WCI  17
BUFFALO        FAIR      17  11  77 NW7       29.95R WCI   8
GILLETTE       MOCLDY    21  16  81 S8        29.97S WCI  11
HULETT         CLOUDY    27  19  74 MISG      29.99S
NEWCASTLE      CLOUDY    19  18  93 SE6       30.03S WCI  11

$$
WYZ014>020-022>026-101>103-250200-
CENTRAL WYOMING

CITY           SKY/WX    TMP DP  RH WIND       PRES   REMARKS
BIG PINEY      MOCLDY    10   6  84 N6        29.94R WCI   0
PINEDALE       FAIR      10   3  72 NW8       29.95R WCI  -1
DUBOIS         FAIR      10   7  85 W5        29.86R WCI   2
LANDER         MOCLDY    15   9  76 W7        29.93R WCI   5
RIVERTON       FAIR      12  10  92 NW5       29.94R WCI   4
CASPER         FAIR      13   8  81 SW7       29.95R WCI   3
DOUGLAS        FAIR      11   7  84 SE6       29.98S WCI   1

$$
WYZ021-027>030-104>119-250200-
SOUTHERN WYOMING

CITY           SKY/WX    TMP DP  RH WIND       PRES   REMARKS
EVANSTON       FAIR      11   3  70 W13       29.99R WCI  -4
FORT BRIDGER   FAIR      16  10  77 W17       30.01R WCI   0
ROCK SPRINGS   FAIR      16   8  71 SW14      29.96R WCI   2
DIXON            N/A     19  11  72 W5        30.00R WCI  12
RAWLINS        CLOUDY    16   9  74 W14G21    29.93R WCI   2
SARATOGA       MOCLDY    10   5  79 SW9       29.93S WCI  -2
LARAMIE        FAIR      12   5  73 CALM      29.88R
CHEYENNE       FAIR      14   8  77 SW7       29.95R WCI   4
TORRINGTON     FAIR      17  13  84 SE5       30.03S WCI  10
PINE BLUFFS    MOCLDY    18  14  86 N3        30.01R

$$




USA.gov is the U.S. government's official web portal to all federal, state and local government web resources and services.